Regional Weather Roundup
Issued by NWS Jackson, KY

Home | Current Version | Previous Version | Graphics & Text | Print | Product List | Glossary On
Versions: 1 2 3 4 5 6 7 8 9 10 11 12 13 14 15 16 17 18 19 20 21 22 23 24 25 26 27 28 29 30 31 32 33 34 35 36 37 38 39 40 41 42 43 44 45 46 47 48 49 50
000
ASUS43 KJKL 040610
RWRJKL

EAST KENTUCKY HOURLY WEATHER ROUNDUP
NATIONAL WEATHER SERVICE JACKSON KY
200 AM EDT FRI SEP 04 2015

NOTE: "FAIR" INDICATES FEW OR NO CLOUDS BELOW 12,000 FEET WITH
NO SIGNIFICANT WEATHER AND/OR OBSTRUCTIONS TO VISIBILITY.

* THESE REPORTS ARE NOT UNDER NWS QUALITY CONTROL AND MAY NOT
  REPORT WEATHER SUCH AS PRECIPITATION AND FOG.

KYZ079-080-083-085-087-088-110-112-115-119-120-040700
...EASTERN KENTUCKY...

CITY           SKY/WX    TMP DP  RH WIND       PRES   REMARKS
JACKSON        CLEAR     72  66  81 CALM      30.02S
6HR MIN TEMP:  71; 6HR MAX TEMP:  79;

LONDON         CLEAR     69  65  86 CALM      30.01F FOG
6HR MIN TEMP:  69; 6HR MAX TEMP:  81;

SOMERSET*      CLEAR     66  66 100 CALM      30.02S FOG
MONTICELLO*    CLEAR     64  64 100 CALM      30.03S FOG
6HR MIN TEMP:  65; 6HR MAX TEMP:  78;

WILLIAMSBURG*  CLEAR     63  63 100 CALM      30.02
MIDDLESBORO*   CLEAR     66  65  99 CALM      30.03S
6HR MIN TEMP:  65; 6HR MAX TEMP:  77;

HARLAN APT*      N/A     66  66 100 MISG      30.04S
HAZARD APT*    CLEAR     68  68 100 CALM      30.02S FOG
BLACK MTN*       N/A     64  61  88 N2          N/A
PIKEVILLE APT* CLEAR     70  68  94 S3        30.02F
BIG SANDY*     CLEAR     69  69  98 CALM      30.02S FOG
6HR MIN TEMP:  69; 6HR MAX TEMP:  77;

MOREHEAD APT*  CLEAR     70  68  94 CALM      30.02S FOG
$$

KYZ035-036-041-042-044-050-067-078-099-040700
...CENTRAL KENTUCKY...

CITY           SKY/WX    TMP DP  RH WIND       PRES   REMARKS
MT STERLING*   CLEAR     68  68 100 CALM      30.02S FOG
FLEMING/MASON* CLEAR     72  70  94 S6        30.01S
DANVILLE*      CLEAR     66  64  94 CALM      30.02S
RICHMOND*      CLEAR     70  66  88 CALM      30.00S
LEXINGTON      CLEAR     70  66  87 S3        30.00S
6HR MIN TEMP:  70; 6HR MAX TEMP:  84;

FRANKFORT      CLEAR     70  66  87 CALM      29.99R FOG
6HR MIN TEMP:  69; 6HR MAX TEMP:  82;

$$

KYZ091>093-OHZ055-061-077-WVZ005-015-034-035-042-040700
...SOUTHERN OHIO/WEST VIRGINIA...

CITY           SKY/WX    TMP DP  RH WIND       PRES   REMARKS
COVINGTON      CLEAR     71  67  87 CALM      29.98S
COLUMBUS       MOCLDY    68  65  90 N7        30.00R
DAYTON         PTCLDY    74  68  81 SW7       29.99R
WILMINGTON     CLEAR     68  66  93 SE3       29.98S FOG
HUNTINGTON     CLEAR     67  67 100 SE3       29.99S FOG
CHARLESTON     CLEAR     69  67  93 CALM      30.00S FOG
PINEVILLE*     CLOUDY    66  66 100 MISG      30.09F FOG
BECKLEY        CLEAR     65  62  90 CALM      30.08S FOG
BLUEFIELD      PTCLDY    69  62  78 SW5       30.10S
$$

VAZ002-007-008-TNZ017-027-036-066-071-040700
...SOUTHWEST VIRGINIA/EAST TENNESSEE...

CITY           SKY/WX    TMP DP  RH WIND       PRES   REMARKS
WISE*          CLEAR     68  66  94 CALM      30.10F
JONESVILLE*      N/A    N/A N/A N/A CALM      30.05S
ABINGDON*      CLEAR     68  64  87 CALM      30.06S
BRISTOL        PTCLDY    66  64  93 CALM      30.02F
KNOXVILLE      CLEAR     72  70  93 CALM      29.98S
OAK RIDGE      CLEAR     72  67  84 CALM      30.00S
CROSSVILLE     CLEAR     68  65  90 CALM      30.05F FOG
NASHVILLE      PTCLDY    76  67  73 CALM      29.98S
$$

...KEY TO REMARKS...
VSB - VISIBILITY IN MILES
WCI - WIND CHILL INDEX
HX  - HEAT INDEX

$$


USA.gov is the U.S. government's official web portal to all federal, state and local government web resources and services.